Tracking 17267 objects as of 31-August-2015
HD Live streaming from Space Station

NAVSTAR 36 (USA 100)

Track NAVSTAR 36 (USA 100) now!
NAVSTAR 36 (USA 100) is classified as:


NORAD ID: 23027
Int'l Code: 1994-016A
Perigee: 19,921.9 km
Apogee: 20,456.2 km
Inclination: 54.4 °
Period: 718.0 minutes
Semi major axis: 26560 km
RCS: 2.0263 m2 (large)
Launch date: March 10, 1994
Source: United States (US)
PRN:
Your satellite tracking list
Your tracking list is empty





NASA's NSSDC Master Catalog

Two Line Element Set (TLE):
1 23027U 94016A   15242.47905650 -.00000017  00000-0  00000+0 0  9992
2 23027 054.4311 062.0624 0100577 006.5819 047.0607 02.00567151157344

Source of the keplerian elements: AFSPC

N2YO: 315